Berlin Tegel, Germany

11:22 PM CEST on July 26, 2017 (GMT +0200)
Tegel

Weather History for EDDT - January, 2014

Change the Weather History Date:

Sunday, January 12, 2014

  Actual Average Record
Temperature  
Mean Temperature 38 °F -  
Max Temperature 42 °F 38 °F 50 °F (1998)
Min Temperature 33 °F 28 °F - (1999)
Degree Days  
Heating Degree Days 28    
Moisture  
Dew Point 34 °F    
Average Humidity 78    
Maximum Humidity 93    
Minimum Humidity 61    
Precipitation  
Precipitation 0.00 in - - ()
Sea Level Pressure  
Sea Level Pressure 30.07 in    
Wind  
Wind Speed 15 mph ()    
Max Wind Speed 23 mph    
Max Gust Speed 34 mph    
Visibility 7.5 miles    
Events Rain    
Averages and records for this station are not official NWS values.
T = Trace of Precipitation, MM = Missing Value Source: Averaged Metar Reports

Daily Weather History Graph

Daily Weather History Graph

Search for Another Location

Airport or City:

Trip Planner

Search our weather history database for the weather conditions in past years. The results will help you decide how hot, cold, wet, or windy it might be!

Date:

Astronomy

Jan. 12, 2014 Rise Set
Actual Time 8:12 AM CET 4:17 PM CET
Civil Twilight 7:32 AM CET 4:57 PM CET
Nautical Twilight 6:49 AM CET 5:40 PM CET
Astronomical Twilight 6:08 AM CET 6:22 PM CET
Moon 1:36 PM CET (1/12) 4:52 AM CET (1/12)
Length of Visible Light 9h 24m
Length of Day
8h 04m
Waxing Gibbous, 88% of the Moon is Illuminated
Jan 12
Waxing Gibbous
Jan 16
Full
Jan 24
Last Quarter
Jan 30
New
Feb 6
First Quarter

Hourly Weather History & Observations

Time (CET) Temp. Windchill Dew Point Humidity Pressure Visibility Wind Dir Wind Speed Gust Speed Precip Events Conditions
12:00 AM 40 °F - 36 °F 81% 29.95 in 22 mi West 17.9 mph - - Rain Light Rain Showers
12:20 AM 39.2 °F 30.5 °F 35.6 °F 87% 29.95 in 6.2 mi West 16.1 mph - N/A   Mostly Cloudy
12:50 AM 39.2 °F 28.7 °F 35.6 °F 87% 29.95 in 6.2 mi West 23.0 mph 34.5 mph N/A Rain Light Rain Showers
1:00 AM 40 °F - 36 °F 80% 29.96 in 22 mi West 22.4 mph - - Rain Light Rain Showers
1:20 AM 39.2 °F 31.6 °F 35.6 °F 87% 29.98 in 6.2 mi West 12.7 mph - N/A   Mostly Cloudy
1:50 AM 39.2 °F 30.2 °F 35.6 °F 87% 29.98 in 6.2 mi West 17.3 mph - N/A Rain Light Rain Showers
2:00 AM 39 °F - 36 °F 84% 29.99 in 22 mi West 17.9 mph - - Rain Light Rain Showers
2:20 AM 39.2 °F 29.6 °F 33.8 °F 81% 29.98 in 6.2 mi West 19.6 mph - N/A   Mostly Cloudy
2:50 AM 39.2 °F 29.3 °F 33.8 °F 81% 30.01 in 6.2 mi West 20.7 mph - N/A   Mostly Cloudy
3:00 AM 40 °F - 34 °F 72% 30.01 in 25 mi West 20.1 mph - - Rain Light Rain Showers
3:20 AM 41.0 °F 32.2 °F 33.8 °F 76% 30.01 in 6.2 mi West 18.4 mph - N/A   Mostly Cloudy
3:50 AM 39.2 °F 29.3 °F 33.8 °F 81% 30.01 in 6.2 mi West 20.7 mph 33.4 mph N/A   Mostly Cloudy
4:00 AM 40 °F - 34 °F 72% 30.03 in 25 mi West 20.1 mph - - Rain Light Rain
4:20 AM 39.2 °F 30.8 °F 33.8 °F 81% 30.01 in 6.2 mi West 15.0 mph - N/A   Mostly Cloudy
4:50 AM 41.0 °F 31.6 °F 33.8 °F 76% 30.04 in 6.2 mi West 20.7 mph 34.5 mph N/A   Mostly Cloudy
5:00 AM 40 °F - 34 °F 71% 30.04 in 22 mi West 20.1 mph - -   Mostly Cloudy
5:20 AM 41.0 °F 32.5 °F 33.8 °F 76% 30.04 in 6.2 mi West 17.3 mph - N/A   Mostly Cloudy
5:50 AM 39.2 °F 30.5 °F 33.8 °F 81% 30.04 in 6.2 mi West 16.1 mph 29.9 mph N/A   Mostly Cloudy
6:00 AM 40 °F - 34 °F 72% 30.06 in 22 mi West 15.7 mph - - Rain Light Rain
6:20 AM 39.2 °F 30.5 °F 33.8 °F 81% 30.06 in 6.2 mi West 16.1 mph - N/A   Mostly Cloudy
6:50 AM 39.2 °F 30.5 °F 33.8 °F 81% 30.06 in 6.2 mi West 16.1 mph - N/A   Mostly Cloudy
7:00 AM 40 °F - 34 °F 72% 30.08 in 22 mi West 15.7 mph - -   Partly Cloudy
7:20 AM 39.2 °F 29.8 °F 33.8 °F 81% 30.06 in 6.2 mi West 18.4 mph 33.4 mph N/A   Mostly Cloudy
7:50 AM 39.2 °F 30.8 °F 33.8 °F 81% 30.09 in 6.2 mi West 15.0 mph - N/A   Scattered Clouds
8:00 AM 39 °F - 33 °F 73% 30.10 in 22 mi West 15.7 mph - -   Partly Cloudy
8:20 AM 39.2 °F 30.8 °F 33.8 °F 81% 30.09 in 6.2 mi West 15.0 mph - N/A   Mostly Cloudy
8:50 AM 39.2 °F 31.2 °F 33.8 °F 81% 30.12 in 6.2 mi West 13.8 mph - N/A   Mostly Cloudy
9:00 AM 39 °F - 34 °F 76% 30.13 in 19 mi West 13.4 mph - -   Mostly Cloudy
9:20 AM 39.2 °F 30.8 °F 33.8 °F 81% 30.12 in 6.2 mi West 15.0 mph - N/A   Mostly Cloudy
9:50 AM 39.2 °F 30.8 °F 33.8 °F 81% 30.12 in 6.2 mi West 15.0 mph - N/A   Mostly Cloudy
10:00 AM 39 °F - 34 °F 76% 30.13 in 17 mi West 13.4 mph - -   Mostly Cloudy
10:20 AM 39.2 °F 30.5 °F 33.8 °F 81% 30.12 in 6.2 mi West 16.1 mph - N/A   Mostly Cloudy
10:50 AM 39.2 °F 31.2 °F 35.6 °F 87% 30.12 in 6.2 mi West 13.8 mph - N/A   Scattered Clouds
11:00 AM 40 °F - 35 °F 74% 30.14 in 17 mi West 13.4 mph - -   Partly Cloudy
11:20 AM 41.0 °F 32.8 °F 33.8 °F 76% 30.12 in 6.2 mi West 16.1 mph - N/A   Scattered Clouds
11:50 AM 41.0 °F 32.2 °F 33.8 °F 76% 30.12 in 6.2 mi West 18.4 mph - N/A   Scattered Clouds
12:00 PM 41 °F - 34 °F 68% 30.14 in 17 mi West 17.9 mph - -   Partly Cloudy
12:20 PM 41.0 °F 32.8 °F 33.8 °F 76% 30.12 in 6.2 mi West 16.1 mph - N/A   Mostly Cloudy
12:50 PM 42.8 °F 34.5 °F 33.8 °F 70% 30.09 in 6.2 mi West 18.4 mph - N/A   Scattered Clouds
1:00 PM 42 °F - 34 °F 65% 30.12 in 10 mi West 17.9 mph - -   Partly Cloudy
1:20 PM 41.0 °F 32.5 °F 33.8 °F 76% 30.09 in 6.2 mi West 17.3 mph - N/A   Scattered Clouds
1:50 PM 42.8 °F 34.8 °F 33.8 °F 70% 30.09 in 6.2 mi West 17.3 mph - N/A   Partly Cloudy
2:00 PM 42 °F - 34 °F 63% 30.11 in 17 mi West 17.9 mph - -   Scattered Clouds
2:20 PM 41.0 °F 33.1 °F 33.8 °F 76% 30.09 in 6.2 mi West 15.0 mph - N/A   Scattered Clouds
2:50 PM 41.0 °F 33.5 °F 33.8 °F 76% 30.09 in 6.2 mi West 13.8 mph - N/A   Mostly Cloudy
3:00 PM 42 °F - 33 °F 62% 30.11 in 22 mi West 13.4 mph - -   Mostly Cloudy
3:20 PM 41.0 °F 32.5 °F 33.8 °F 76% 30.09 in 6.2 mi West 17.3 mph - N/A   Mostly Cloudy
3:50 PM 41.0 °F 33.5 °F 33.8 °F 76% 30.09 in 6.2 mi West 13.8 mph - N/A   Mostly Cloudy
4:00 PM 42 °F - 33 °F 61% 30.11 in 22 mi West 13.4 mph - -   Mostly Cloudy
4:20 PM 41.0 °F 33.9 °F 33.8 °F 76% 30.09 in 6.2 mi West 12.7 mph - N/A   Mostly Cloudy
4:50 PM 39.2 °F 31.6 °F 33.8 °F 81% 30.09 in 6.2 mi West 12.7 mph - N/A   Partly Cloudy
5:00 PM 40 °F - 33 °F 67% 30.11 in 22 mi West 11.2 mph - - Rain Light Rain
5:20 PM 41.0 °F 33.9 °F 33.8 °F 76% 30.09 in 6.2 mi West 12.7 mph - N/A   Mostly Cloudy
5:50 PM 39.2 °F 32.0 °F 32.0 °F 75% 30.09 in 6.2 mi West 11.5 mph - N/A   Mostly Cloudy
6:00 PM 40 °F - 33 °F 67% 30.10 in 25 mi West 11.2 mph - -   Mostly Cloudy
6:20 PM 41.0 °F 33.5 °F 33.8 °F 76% 30.09 in 6.2 mi West 13.8 mph - N/A   Mostly Cloudy
6:50 PM 41.0 °F 33.9 °F 33.8 °F 76% 30.09 in 6.2 mi West 12.7 mph - N/A   Mostly Cloudy
7:00 PM 40 °F - 33 °F 68% 30.10 in 22 mi West 13.4 mph - -   Partly Cloudy
7:20 PM 39.2 °F 31.2 °F 33.8 °F 81% 30.09 in 6.2 mi West 13.8 mph - N/A   Mostly Cloudy
7:50 PM 39.2 °F 31.6 °F 33.8 °F 81% 30.09 in 6.2 mi West 12.7 mph - N/A   Mostly Cloudy
8:00 PM 39 °F - 33 °F 72% 30.11 in 22 mi West 11.2 mph - -   Mostly Cloudy
8:20 PM 37.4 °F 30.3 °F 32.0 °F 81% 30.09 in 6.2 mi West 10.4 mph - N/A   Mostly Cloudy
8:50 PM 35.6 °F 28.6 °F 32.0 °F 87% 30.09 in 6.2 mi West 9.2 mph - N/A   Mostly Cloudy
9:00 PM 36 °F - 31 °F 77% 30.10 in 22 mi West 8.9 mph - -   Scattered Clouds
9:20 PM 35.6 °F 28.0 °F 32.0 °F 87% 30.09 in 6.2 mi WSW 10.4 mph - N/A   Mostly Cloudy
9:50 PM 37.4 °F 31.4 °F 32.0 °F 81% 30.09 in 6.2 mi West 8.1 mph - N/A   Mostly Cloudy
10:00 PM 37 °F - 33 °F 79% 30.10 in 22 mi West 8.9 mph - -   Scattered Clouds
10:20 PM 35.6 °F 28.0 °F 33.8 °F 93% 30.09 in 6.2 mi West 10.4 mph - N/A   Mostly Cloudy
10:50 PM 35.6 °F 29.2 °F 33.8 °F 93% 30.09 in 6.2 mi West 8.1 mph - N/A   Mostly Cloudy
11:00 PM 37 °F - 33 °F 82% 30.10 in 19 mi West 6.7 mph - -   Mostly Cloudy
11:20 PM 33.8 °F 27.0 °F 32.0 °F 93% 30.06 in 6.2 mi West 8.1 mph - N/A   Mostly Cloudy
11:50 PM 33.8 °F 29.6 °F 32.0 °F 93% 30.06 in - West 4.6 mph - N/A   Clear